KMCT THAILAND CO LTD
KMCT THAILAND CO LTD's Shipments Over Time
Supply Ratings
Shipment Reliability and Frequency Volume of Goods
Avg. Shipments per Month: 4.42 Average TEU per month: 6.42
Active Months: 12 Average TEU per Shipment: 1.45
Shipment Frequency Std. Dev.: 3.03
Shipments By Companies
Company Name Shipments
PINOLE VALLEY TRUCKING 133 shipments
MITSUBISHI ELECTRIC US INC 41 shipments
MITSUBISHI ELECTRIC USA INC 19 shipments
Shipments By HS Code
HS Code Shipments
841590 Air conditioning machines; with motor driven fan and elements for temperature control, parts thereof 81 shipments
741110 Copper; tubes and pipes, of refined copper 31 shipments
760820.0 Aluminium; tubes and pipes 26 shipments
760820 Aluminium; tubes and pipes, alloys 25 shipments
741210 Copper; tube or pipe fittings (e.g. couplings, elbows, sleeves) of refined copper 12 shipments
841590.0 Air conditioning machines; comprising a motor driven fan and elements for changing the temperature and humidity, including those machines in which the humidity cannot be separately regulated 12 shipments
741210.0 Copper; tube or pipe fittings (e.g. couplings, elbows, sleeves) 5 shipments
741111 Copper tubes and pipes 1 shipments
to show market analysis.
Similar Suppliers
to see more.
Latest Shipments
Arrival Date Bill Of Lading Consignee Weight HS Code Description
2026-07-16 COSU6451946370 PINOLE VALLEY TRUCKING 8944.0 kg 760820 SEAMLESS COPPER END FORMED TUBE
2026-07-02 COSU6500085910 PINOLE VALLEY TRUCKING 17554.0 kg 760820 SEAMLESS COPPER END FORMED TUBE
2026-06-21 COSU6449003350 PINOLE VALLEY TRUCKING 17853.0 kg 741210 COPPER TUBE
2026-06-12 COSU6500075380 MITSUBISHI ELECTRIC USA INC 8689.0 kg 841590 COPPER TUBE FOR PARTS OF AIR CONDITIONING KM CT INVOICE NO.
2026-06-12 COSU6500075540 PINOLE VALLEY TRUCKING 17554.0 kg 841590 COPPER TUBE FOR PARTS OF AIR CONDITIONING KM CT INVOICE NO.
2026-05-22 COSU6448114640 MITSUBISHI ELECTRIC USA INC 8880.0 kg 760820 SEAMLESS COPPER END FORMED TUBE
2026-05-22 COSU6448114610 MITSUBISHI ELECTRIC USA INC 17672.0 kg 760820 SEAMLESS COPPER END FORMED TUBE
2026-04-26 COSU6441753690 PINOLE VALLEY TRUCKING 9046.0 kg 760820.0 SEAMLESS COPPER END FORMED TUBE
2026-04-16 COSU6441719210 MITSUBISHI ELECTRIC USA INC 8656.0 kg 760820.0 SEAMLESS COPPER END FORMED TUBE
2026-04-15 COSU6445514240 PINOLE VALLEY TRUCKING 8834.0 kg 841590.0 COPPER TUBE FOR PARTS OF AIR CONDITIONING KM CT INVOICE NO.
2026-04-13 COSU6444372350 PINOLE VALLEY TRUCKING 17697.0 kg 841590.0 COPPER TUBE FOR PARTS OF AIR CONDITIONING KM CT INVOICE NO.
2026-04-08 COSU6440568910 PINOLE VALLEY TRUCKING 8979.0 kg 760820.0 SEAMLESS COPPER END FORMED TUBE
2026-04-03 COSU6441716640 PINOLE VALLEY TRUCKING 8961.0 kg 760820.0 SEAMLESS COPPER END FORMED TUBE
2026-04-03 COSU6444258860 PINOLE VALLEY TRUCKING 8637.0 kg 841590.0 COPPER TUBE FOR PARTS OF AIR CONDITIONING KM CT INVOICE NO.
2026-04-03 COSU6445514250 PINOLE VALLEY TRUCKING 8792.0 kg 760820.0 SEAMLESS COPPER END FORMED TUBE
2026-03-12 COSU6441586040 PINOLE VALLEY TRUCKING 17120.0 kg 841590.0 COPPER TUBE FOR PARTS OF AIR CONDITIONING
2026-03-10 COSU6441586120 PINOLE VALLEY TRUCKING 8905.0 kg 760820.0 SEAMLESS COPPER END FORMED TUBE
2026-03-10 COSU6440176470 PINOLE VALLEY TRUCKING 8935.0 kg 841590.0 COPPER TUBE FOR PARTS OF AIR CONDITIONING KM CT INVOICE NO.
2026-03-10 COSU6440176550 PINOLE VALLEY TRUCKING 17164.0 kg 760820.0 SEAMLESS COPPER END FORMED TUBE
2026-03-10 COSU6440176530 PINOLE VALLEY TRUCKING 8772.0 kg 841590.0 COPPER TUBE FOR PARTS OF AIR CONDITIONING
2026-02-18 COSU6436273160 PINOLE VALLEY TRUCKING 17446.0 kg 741210.0 COPPER TUBE
2026-02-18 COSU6436273220 MITSUBISHI ELECTRIC USA INC 9009.0 kg 760820.0 SEAMLESS COPPER END FORMED TUBE
2026-02-17 COSU6436952480 PINOLE VALLEY TRUCKING 17976.0 kg 760820.0 SEAMLESS COPPER END FORMED TUBE
2026-01-30 COSU6436319730 MITSUBISHI ELECTRIC USA INC 9041.0 kg 841590.0 COPPER TUBE FOR PARTS OF AIR CONDITIONING
2026-01-30 COSU6436319690 MITSUBISHI ELECTRIC USA INC 17518.0 kg 841590.0 COPPER TUBE FOR PARTS OF AIR CONDITIONING
2026-01-30 COSU6436295580 MITSUBISHI ELECTRIC USA INC 17591.0 kg 841590.0 COPPER TUBE FOR PARTS OF AIR CONDITIONING
2026-01-23 COSU6435352570 PINOLE VALLEY TRUCKING 8662.0 kg 841590.0 COPPER TUBE FOR PARTS OF AIR CONDITIONING
2026-01-23 COSU6435352560 PINOLE VALLEY TRUCKING 17616.0 kg 760820.0 SEAMLESS COPPER END FORMED TUBE
2026-01-23 COSU6436295570 PINOLE VALLEY TRUCKING 8893.0 kg 841590.0 COPPER TUBE FOR PARTS OF AIR CONDITIONING
2026-01-09 COSU6433717490 PINOLE VALLEY TRUCKING 8833.0 kg 741210.0 COPPER TUBE
2026-01-09 COSU6434462020 PINOLE VALLEY TRUCKING 8849.0 kg 760820.0 SEAMLESS COPPER END FORMED TUBE
2026-01-09 COSU6437315870 MITSUBISHI ELECTRIC USA INC 17760.0 kg 760820.0 SEAMLESS COPPER END FORMED TUBE
2026-01-08 COSU6433709240 PINOLE VALLEY TRUCKING 17729.0 kg 760820.0 SEAMLESS COPPER END FORMED TUBE
2026-01-08 COSU6433709190 PINOLE VALLEY TRUCKING 17997.0 kg 741210.0 COPPER TUBE
2026-01-08 COSU6433709220 PINOLE VALLEY TRUCKING 8907.0 kg 760820.0 SEAMLESS COPPER END FORMED TUBE
2025-12-30 COSU6433466360 MITSUBISHI ELECTRIC USA INC 17489.0 kg 760820.0 SEAMLESS COPPER END FORMED TUBE
2025-12-26 COSU6433466430 PINOLE VALLEY TRUCKING 17392.0 kg 760820.0 SEAMLESS COPPER END FORMED TUBE
2025-12-09 COSU6432268070 PINOLE VALLEY TRUCKING 17562.0 kg 841590.0 COPPER TUBE FOR PARTS OF AIR CONDITIONING
2025-12-05 COSU6432268280 MITSUBISHI ELECTRIC USA INC 8733.0 kg 760820.0 SEAMLESS COPPER END FORMED TUBE
2025-11-20 COSU6429126450 PINOLE VALLEY TRUCKING 17211.0 kg 741210.0 COPPER TUBE
2025-10-31 COSU6429126490 PINOLE VALLEY TRUCKING 17581.0 kg 760820.0 SEAMLESS COPPER END FORMED TUBE
2025-10-21 COSU6427657740 PINOLE VALLEY TRUCKING 17501.0 kg 741210.0 COPPER TUBE
2025-10-21 COSU6429126470 PINOLE VALLEY TRUCKING 8849.0 kg 760820.0 SEAMLESS COPPER END FORMED TUBE
2025-10-15 COSU6426425090 MITSUBISHI ELECTRIC USA INC 17705.0 kg 760820.0 SEAMLESS COPPER END FORMED TUBE
2025-10-15 COSU6427014850 PINOLE VALLEY TRUCKING 8850.0 kg 760820.0 SEAMLESS COPPER END FORMED TUBE
2025-09-14 COSU6425049600 PINOLE VALLEY TRUCKING 18085.0 kg 760820.0 SEAMLESS COPPER END FORMED TUBE
2025-09-14 COSU6425049630 PINOLE VALLEY TRUCKING 17999.0 kg 760820.0 SEAMLESS COPPER END FORMED TUBE
2025-09-11 COSU6424330590 PINOLE VALLEY TRUCKING 17608.0 kg 760820.0 SEAMLESS COPPER END FORMED TUBE
2025-09-04 COSU6423214180 PINOLE VALLEY TRUCKING 17641.0 kg 760820.0 SEAMLESS COPPER END FORMED TUBE
2025-09-04 COSU6423214160 PINOLE VALLEY TRUCKING 17966.0 kg 760820.0 SEAMLESS COPPER END FORMED TUBE
Contact information Request
to request contact information.
Other address
169 MOO 2 NONG-BUA SUB-DISTRICT BA RAYONG RAYONG 21120 THAILAND
169 MOO 2 NONG BUA SUB-DISTRICT BAN-KHAI DISTRICT RAYONG 21120 TH
169 MOO 2 NONG-BUA SUB-DISTRICT BA RAYONG RAYONG 21120 THAILAND
169 MOO 2 NONG BUA SUB-DIST BAN-KHAI DISTRICT
169 MOO 2 NONG BUA SUB-DISTRICT BAN-KHAI DISTRICT RAYONG 21120 THAILAND
169 MOO 2 NONG-BUA SUB-DISTRICT BA RAYONG RAYONG 21120 THAILAND
169 MOO 2 NONG BUA SUB-DISTRICT BANRAYONG 21120 TH
169 MOO 2 NONG BUA SUB-DISTRICT BAN-KHAI DISTRICT